Flag for Italy Weather past 2 weeks in Messina, Italy

Now
70 °F

Clear.


Feels Like: 70 °F
Forecast: 77 / 85 °F
Wind: 5 mph from West

Location: Catania / Fontanarossa

Current Time: Aug 23, 2014 at 5:52:58 AM

Latest Report: Aug 23, 2014 at 4:50 AM


Visibility: 10 mi

Pressure: 29.95 "Hg

Humidity: 88%

Dew point: 66 °F

Location of MessinaLocation

Historic Weather in Messina — Graph

°F

Messina temperature yesterday

Maximum temperature yesterday: 86 °F (at 12:20 PM)
Minimum temperature yesterday: 72 °F (at 1:20 AM)
Average temperature yesterday: 78 °F

Past Weeks' High & Low Weather Summary

 TemperatureHumidityPressure
High100 °F (Aug 12, 12:20 PM)89% (Aug 9, 11:20 PM)30.21 "Hg (Aug 9, 11:20 PM)
Low63 °F (Aug 18, 6:20 AM)10% (Aug 13, 12:50 PM)29.80 "Hg (Aug 13, 5:50 PM)
Average79 °F58%29.95 "Hg
* Reported Aug 8 4:50 AM — Aug 23 4:20 AM, Messina, Weather by CustomWeather, © 2014

Note: Actual official high and low records may vary slightly from our data, if they occured in-between our weather recording intervals... More about our weather records

Advertising

Messina weather history for previous 24 hours

 ConditionsComfort  
Time TempWeatherWind HumidityBarometerVisibility
4:20 AM
Aug 23
70 °FClear.2 mph88%29.95 "Hg10 mi
3:50 AM72 °FClear.3 mph88%29.95 "Hg10 mi
3:20 AM72 °FClear.2 mph88%29.95 "Hg10 mi
2:50 AM73 °FClear.2 mph89%29.95 "Hg10 mi
2:20 AM75 °FClear.2 mph83%29.95 "Hg10 mi
1:50 AM75 °FClear.5 mph83%29.95 "Hg10 mi
1:20 AM75 °FClear.6 mph83%29.95 "Hg10 mi
12:50 AM75 °FClear.5 mph83%29.98 "Hg10 mi
12:20 AM75 °FPassing clouds.5 mph83%29.98 "HgN/A
11:50 PM
Aug 22
75 °FPassing clouds.5 mph83%29.98 "HgN/A
11:20 PM77 °FPassing clouds.5 mph83%29.98 "HgN/A
10:50 PM75 °FPassing clouds.5 mph89%29.98 "HgN/A
10:20 PM77 °FPassing clouds.2 mph83%29.98 "HgN/A
9:50 PM77 °FPassing clouds.1 mph83%29.98 "HgN/A
9:20 PM77 °FPassing clouds.5 mph83%29.98 "HgN/A
8:50 PM77 °FPassing clouds.6 mph83%29.98 "HgN/A
8:20 PM77 °FScattered clouds.6 mph83%29.95 "HgN/A
7:50 PM79 °FScattered clouds.7 mph79%29.95 "HgN/A
7:20 PM79 °FScattered clouds.9 mph74%29.95 "HgN/A
6:50 PM81 °FScattered clouds.9 mph70%29.92 "HgN/A
6:20 PM81 °FScattered clouds.10 mph70%29.92 "HgN/A
5:50 PM82 °FScattered clouds.12 mph66%29.92 "HgN/A
5:20 PM82 °FScattered clouds.10 mph62%29.92 "HgN/A
4:50 PM82 °FScattered clouds.12 mph62%29.95 "HgN/A
4:20 PM84 °FScattered clouds.12 mph58%29.95 "HgN/A
3:50 PM84 °FPassing clouds.12 mph58%29.95 "HgN/A
3:20 PM84 °FScattered clouds.13 mph58%29.95 "HgN/A
2:50 PM84 °FScattered clouds.12 mph55%29.95 "HgN/A
2:20 PM84 °FScattered clouds.13 mph55%29.95 "HgN/A
1:50 PM84 °FScattered clouds.13 mph58%29.95 "HgN/A
1:20 PM84 °FScattered clouds.12 mph51%29.95 "HgN/A
12:50 PM84 °FPassing clouds.12 mph45%29.95 "HgN/A
12:20 PM86 °FPassing clouds.10 mph43%29.98 "HgN/A
11:50 AM84 °FPassing clouds.9 mph51%29.98 "HgN/A
11:20 AM84 °FPassing clouds.8 mph48%29.98 "HgN/A
10:50 AM82 °FSunny.8 mph45%29.98 "Hg10 mi
10:20 AM84 °FPassing clouds.8 mph43%29.95 "HgN/A
9:50 AM84 °FSunny.2 mph40%29.95 "Hg10 mi
9:20 AM82 °FSunny.2 mph45%29.95 "Hg10 mi
8:50 AM79 °FSunny.2 mph65%29.95 "Hg10 mi
8:20 AM75 °FPassing clouds.3 mph69%29.95 "HgN/A
7:50 AM73 °FSunny.6 mph78%29.95 "Hg10 mi
7:20 AM72 °FClear.2 mph83%29.95 "Hg10 mi
6:50 AM72 °FClear.2 mph83%29.92 "Hg10 mi
6:20 AM72 °FPassing clouds.3 mph83%29.95 "HgN/A
5:50 AM72 °FClear.3 mph83%29.95 "Hg10 mi
5:20 AM72 °FClear.2 mph78%29.92 "Hg10 mi
Weather by CustomWeather, © 2014

See weather overviewHow to use our weather pages